QPF
0.07 0.08 0.08 0.08 0.09 0.09 0.10 0.12 0.11 0.10 0.09 0.07 0.06 0.05 0.06 0.05 0.05 0.05 0.02 0.01 0.01 0.01 0.01 0.03 0.04 0.04 0.03 0.03 0.03 0.03 0.04 0.04 0.03 0.02 0.02 0.02 0.02 0.02 0.01 0.01 0.00 0.00 0.00
0.07 0.08 0.07 0.08 0.09 0.09 0.09 0.08 0.07 0.08 0.08 0.07 0.06 0.05 0.04 0.04 0.04 0.05 0.04 0.02 0.01 0.01 0.01 0.02 0.04 0.03 0.01 0.02 0.02 0.02 0.02 0.03 0.03 0.02 0.02 0.02 0.02 0.02 0.01 0.01 0.01 0.00 0.00
0.07 0.07 0.08 0.07 0.06 0.06 0.05 0.05 0.05 0.07 0.07 0.06 0.06 0.05 0.05 0.04 0.04 0.05 0.08 0.07 0.02 0.01 0.01 0.01 0.03 0.02 0.01 0.02 0.02 0.03 0.02 0.02 0.02 0.02 0.02 0.02 0.01 0.01 0.02 0.01 0.01 0.01 0.00
0.05 0.05 0.07 0.06 0.05 0.03 0.02 0.05 0.06 0.07 0.08 0.08 0.08 0.06 0.04 0.06 0.05 0.05 0.07 0.07 0.07 0.03 0.02 0.01 0.02 0.02 0.02 0.02 0.03 0.02 0.01 0.01 0.01 0.01 0.01 0.01 0.01 0.01 0.01 0.01 0.02 0.01 0.00
0.03 0.04 0.07 0.09 0.05 0.03 0.02 0.03 0.07 0.07 0.08 0.09 0.06 0.06 0.04 0.07 0.06 0.04 0.05 0.06 0.06 0.06 0.06 0.03 0.02 0.02 0.02 0.03 0.04 0.04 0.03 0.02 0.01 0.01 0.01 0.01 0.01 0.01 0.01 0.01 0.01 0.01 0.01
0.04 0.04 0.04 0.07 0.04 0.04 0.05 0.06 0.09 0.09 0.09 0.08 0.07 0.08 0.05 0.06 0.05 0.05 0.04 0.03 0.03 0.02 0.05 0.06 0.04 0.03 0.02 0.03 0.05 0.04 0.04 0.03 0.02 0.01 0.02 0.01 0.01 0.01 0.01 0.01 0.01 0.01 0.01
0.05 0.05 0.06 0.09 0.04 0.04 0.04 0.03 0.07 0.08 0.08 0.07 0.10 0.12 0.09 0.05 0.05 0.05 0.04 0.03 0.02 0.04 0.07 0.07 0.06 0.08 0.05 0.02 0.02 0.03 0.04 0.04 0.03 0.03 0.02 0.02 0.02 0.02 0.01 0.01 0.01 0.02 0.01
0.04 0.03 0.05 0.05 0.04 0.04 0.03 0.03 0.06 0.08 0.09 0.07 0.08 0.14 0.17 0.17 0.12 0.04 0.05 0.06 0.03 0.04 0.04 0.04 0.05 0.07 0.06 0.06 0.03 0.02 0.02 0.04 0.04 0.03 0.03 0.02 0.02 0.01 0.01 0.01 0.01 0.01 0.01
0.05 0.05 0.04 0.05 0.07 0.03 0.04 0.05 0.05 0.06 0.09 0.09 0.05 0.09 0.16 0.18 0.14 0.08 0.05 0.05 0.04 0.05 0.04 0.03 0.03 0.03 0.04 0.07 0.06 0.03 0.02 0.03 0.04 0.04 0.05 0.03 0.03 0.02 0.02 0.01 0.01 0.01 0.01
0.06 0.06 0.06 0.08 0.08 0.06 0.08 0.04 0.05 0.06 0.07 0.08 0.06 0.03 0.04 0.08 0.11 0.15 0.11 0.06 0.06 0.05 0.04 0.04 0.03 0.03 0.04 0.06 0.08 0.04 0.01 0.01 0.01 0.03 0.05 0.05 0.03 0.02 0.02 0.02 0.02 0.02 0.02
0.07 0.06 0.07 0.09 0.08 0.06 0.08 0.06 0.09 0.07 0.07 0.06 0.04 0.03 0.04 0.04 0.04 0.07 0.13 0.12 0.09 0.05 0.03 0.03 0.04 0.05 0.05 0.06 0.08 0.04 0.01 0.02 0.02 0.03 0.03 0.03 0.03 0.03 0.02 0.03 0.03 0.03 0.03
0.08 0.07 0.07 0.08 0.07 0.07 0.08 0.07 0.07 0.07 0.08 0.09 0.06 0.04 0.03 0.03 0.02 0.03 0.06 0.08 0.09 0.07 0.04 0.03 0.04 0.04 0.05 0.06 0.04 0.03 0.03 0.04 0.03 0.02 0.02 0.02 0.02 0.02 0.02 0.03 0.03 0.04 0.04
0.07 0.07 0.07 0.08 0.07 0.08 0.07 0.08 0.07 0.08 0.08 0.08 0.06 0.04 0.03 0.02 0.02 0.01 0.02 0.04 0.06 0.07 0.06 0.04 0.04 0.04 0.03 0.04 0.04 0.03 0.02 0.03 0.02 0.02 0.01 0.01 0.01 0.01 0.02 0.02 0.03 0.04 0.04
0.07 0.07 0.08 0.07 0.07 0.07 0.06 0.09 0.06 0.05 0.08 0.07 0.05 0.05 0.03 0.01 0.01 0.02 0.02 0.03 0.07 0.09 0.08 0.07 0.07 0.06 0.05 0.06 0.05 0.04 0.01 0.01 0.01 0.01 0.01 0.01 0.01 0.01 0.01 0.02 0.02 0.02 0.02
0.10 0.09 0.08 0.07 0.07 0.06 0.06 0.08 0.07 0.07 0.09 0.08 0.05 0.05 0.03 0.02 0.02 0.02 0.02 0.03 0.06 0.10 0.12 0.12 0.10 0.09 0.06 0.05 0.05 0.04 0.03 0.04 0.02 0.01 0.01 0.01 0.01 0.01 0.01 0.01 0.02 0.02 0.01
0.10 0.10 0.09 0.08 0.07 0.07 0.07 0.07 0.08 0.09 0.09 0.08 0.07 0.07 0.04 0.03 0.04 0.03 0.03 0.02 0.03 0.07 0.10 0.10 0.07 0.05 0.04 0.03 0.03 0.03 0.04 0.05 0.03 0.02 0.02 0.02 0.01 0.01 0.01 0.01 0.02 0.02 0.02
0.11 0.10 0.10 0.11 0.10 0.09 0.09 0.09 0.10 0.10 0.10 0.10 0.08 0.08 0.07 0.06 0.06 0.04 0.03 0.02 0.02 0.04 0.07 0.08 0.08 0.07 0.06 0.06 0.04 0.03 0.03 0.04 0.04 0.04 0.02 0.01 0.01 0.01 0.01 0.01 0.01 0.02 0.02
0.14 0.13 0.12 0.12 0.11 0.10 0.11 0.11 0.10 0.10 0.10 0.11 0.11 0.11 0.10 0.07 0.07 0.05 0.04 0.04 0.04 0.04 0.06 0.09 0.10 0.10 0.08 0.05 0.03 0.02 0.02 0.02 0.02 0.03 0.02 0.01 0.01 0.01 0.01 0.01 0.01 0.01 0.01
0.20 0.17 0.16 0.14 0.13 0.13 0.14 0.14 0.11 0.10 0.10 0.10 0.10 0.09 0.08 0.08 0.08 0.07 0.08 0.06 0.05 0.05 0.06 0.07 0.08 0.07 0.04 0.04 0.03 0.03 0.02 0.02 0.01 0.01 0.01 0.01 0.01 0.01 0.01 0.01 0.01 0.01 0.01
0.21 0.20 0.16 0.14 0.14 0.13 0.13 0.12 0.11 0.10 0.09 0.08 0.06 0.05 0.05 0.05 0.07 0.07 0.07 0.08 0.06 0.05 0.05 0.06 0.05 0.03 0.03 0.03 0.02 0.02 0.02 0.02 0.02 0.01 0.01 0.01 0.01 0.01 0.01 0.01 0.01 0.01 0.01
0.15 0.17 0.15 0.13 0.12 0.12 0.11 0.11 0.10 0.09 0.09 0.08 0.06 0.04 0.03 0.03 0.04 0.04 0.04 0.04 0.04 0.03 0.02 0.02 0.02 0.02 0.02 0.02 0.01 0.01 0.01 0.01 0.02 0.01 0.01 0.01 0.01 0.01 0.01 0.01 0.01 0.01 0.01
0.12 0.13 0.11 0.10 0.09 0.08 0.11 0.13 0.11 0.10 0.09 0.08 0.07 0.07 0.05 0.04 0.03 0.03 0.02 0.02 0.02 0.02 0.02 0.02 0.03 0.02 0.02 0.01 0.01 0.01 0.01 0.00 0.01 0.01 0.00 0.00 0.00 0.01 0.01 0.01 0.00 0.00 0.00
0.09 0.10 0.09 0.09 0.11 0.12 0.13 0.12 0.11 0.10 0.10 0.09 0.09 0.08 0.07 0.06 0.05 0.03 0.03 0.02 0.01 0.01 0.02 0.02 0.03 0.02 0.02 0.01 0.01 0.01 0.00 0.00 0.00 0.00 0.00 0.00 0.00 0.00 0.00 0.00 0.00 0.00 0.00
0.08 0.08 0.08 0.08 0.09 0.12 0.14 0.13 0.12 0.10 0.09 0.08 0.07 0.07 0.07 0.06 0.05 0.03 0.02 0.02 0.02 0.02 0.01 0.01 0.01 0.01 0.01 0.00 0.00 0.00 0.00 0.00 0.00 0.00 0.00 0.00 0.00 0.00 0.00 0.00 0.00 0.00 0.00
0.08 0.07 0.07 0.08 0.08 0.09 0.11 0.12 0.11 0.11 0.09 0.07 0.06 0.05 0.04 0.03 0.03 0.02 0.02 0.01 0.01 0.01 0.00 0.00 0.00 0.00 0.00 0.00 0.00 0.00 0.00 0.00 0.00 0.00 0.00 0.00 0.00 0.00 0.00 0.00 0.00 0.00 0.00
0.15 0.14 0.12 0.12 0.12 0.12 0.13 0.11 0.11 0.10 0.09 0.08 0.06 0.05 0.04 0.02 0.01 0.01 0.01 0.01 0.01 0.01 0.01 0.00 0.00 0.00 0.00 0.00 0.00 0.00 0.01 0.01 0.00 0.00 0.00 0.00 0.00 0.00 0.00 0.00 0.00 0.00 0.00
MSLP
1016.39 1016.67 1016.85 1016.98 1017.06 1017.14 1017.23 1017.32 1017.43 1017.53 1017.62 1017.71 1017.80 1017.92 1018.11 1018.37 1018.72 1019.16 1019.66 1020.17 1020.68 1021.12 1021.50 1021.78 1021.99 1022.14 1022.26 1022.37 1022.49 1022.64 1022.79 1022.96 1023.13 1023.28 1023.43 1023.56 1023.68 1023.79 1023.89 1024.00 1024.10 1024.19 1024.26
1016.26 1016.58 1016.80 1016.94 1017.02 1017.09 1017.15 1017.23 1017.34 1017.46 1017.59 1017.74 1017.90 1018.09 1018.30 1018.57 1018.89 1019.26 1019.67 1020.11 1020.55 1020.97 1021.34 1021.67 1021.95 1022.18 1022.37 1022.53 1022.68 1022.80 1022.92 1023.04 1023.15 1023.26 1023.37 1023.49 1023.61 1023.74 1023.88 1024.00 1024.11 1024.20 1024.28
1016.06 1016.42 1016.68 1016.86 1016.98 1017.06 1017.13 1017.22 1017.34 1017.49 1017.67 1017.87 1018.08 1018.30 1018.53 1018.78 1019.04 1019.33 1019.64 1019.97 1020.33 1020.70 1021.07 1021.43 1021.77 1022.09 1022.36 1022.58 1022.76 1022.90 1023.00 1023.08 1023.14 1023.21 1023.30 1023.41 1023.54 1023.68 1023.84 1023.98 1024.11 1024.21 1024.28
1015.79 1016.20 1016.52 1016.76 1016.93 1017.06 1017.17 1017.29 1017.43 1017.61 1017.82 1018.05 1018.30 1018.54 1018.77 1018.98 1019.18 1019.37 1019.57 1019.79 1020.06 1020.36 1020.71 1021.08 1021.47 1021.84 1022.19 1022.48 1022.70 1022.87 1022.97 1023.03 1023.08 1023.12 1023.20 1023.30 1023.43 1023.59 1023.76 1023.93 1024.07 1024.19 1024.26
1015.50 1015.94 1016.32 1016.63 1016.88 1017.08 1017.24 1017.40 1017.57 1017.77 1018.00 1018.26 1018.53 1018.78 1019.00 1019.17 1019.31 1019.41 1019.51 1019.62 1019.78 1020.00 1020.30 1020.65 1021.06 1021.47 1021.86 1022.21 1022.48 1022.68 1022.80 1022.88 1022.92 1022.97 1023.03 1023.14 1023.28 1023.45 1023.63 1023.81 1023.96 1024.09 1024.17
1015.22 1015.68 1016.12 1016.51 1016.83 1017.10 1017.32 1017.52 1017.72 1017.94 1018.18 1018.46 1018.73 1018.99 1019.21 1019.36 1019.45 1019.48 1019.49 1019.51 1019.57 1019.70 1019.91 1020.22 1020.60 1021.01 1021.42 1021.79 1022.10 1022.34 1022.49 1022.59 1022.66 1022.72 1022.80 1022.91 1023.06 1023.23 1023.42 1023.60 1023.75 1023.88 1023.97
1014.98 1015.45 1015.93 1016.39 1016.79 1017.12 1017.39 1017.63 1017.84 1018.07 1018.33 1018.61 1018.90 1019.17 1019.39 1019.55 1019.62 1019.62 1019.57 1019.50 1019.47 1019.50 1019.62 1019.84 1020.15 1020.52 1020.91 1021.28 1021.61 1021.87 1022.06 1022.20 1022.30 1022.39 1022.49 1022.62 1022.77 1022.93 1023.11 1023.27 1023.42 1023.54 1023.64
1014.82 1015.29 1015.80 1016.30 1016.75 1017.13 1017.44 1017.69 1017.92 1018.16 1018.41 1018.70 1019.01 1019.30 1019.55 1019.73 1019.82 1019.81 1019.73 1019.61 1019.50 1019.43 1019.45 1019.57 1019.78 1020.07 1020.40 1020.74 1021.06 1021.33 1021.56 1021.73 1021.88 1022.01 1022.13 1022.27 1022.42 1022.57 1022.72 1022.86 1022.98 1023.09 1023.18
1014.73 1015.19 1015.71 1016.23 1016.71 1017.12 1017.45 1017.71 1017.94 1018.16 1018.42 1018.71 1019.04 1019.36 1019.66 1019.89 1020.02 1020.04 1019.96 1019.81 1019.64 1019.49 1019.41 1019.41 1019.51 1019.70 1019.95 1020.24 1020.53 1020.80 1021.04 1021.26 1021.44 1021.61 1021.76 1021.91 1022.05 1022.18 1022.29 1022.39 1022.48 1022.56 1022.64
1014.71 1015.15 1015.67 1016.19 1016.67 1017.08 1017.40 1017.65 1017.87 1018.09 1018.34 1018.64 1018.98 1019.35 1019.69 1019.97 1020.16 1020.22 1020.17 1020.02 1019.82 1019.62 1019.45 1019.35 1019.35 1019.43 1019.60 1019.82 1020.08 1020.34 1020.59 1020.83 1021.05 1021.25 1021.42 1021.58 1021.70 1021.81 1021.89 1021.94 1021.98 1022.02 1022.08
1014.72 1015.14 1015.64 1016.14 1016.60 1016.99 1017.30 1017.53 1017.72 1017.92 1018.17 1018.47 1018.83 1019.22 1019.61 1019.95 1020.19 1020.30 1020.29 1020.16 1019.97 1019.73 1019.51 1019.35 1019.26 1019.27 1019.36 1019.53 1019.75 1019.99 1020.25 1020.50 1020.75 1020.97 1021.16 1021.32 1021.44 1021.51 1021.55 1021.56 1021.56 1021.56 1021.59
1014.72 1015.13 1015.59 1016.06 1016.49 1016.84 1017.12 1017.33 1017.50 1017.69 1017.92 1018.22 1018.58 1019.00 1019.41 1019.78 1020.07 1020.23 1020.26 1020.17 1020.00 1019.77 1019.54 1019.35 1019.23 1019.20 1019.25 1019.37 1019.56 1019.79 1020.04 1020.30 1020.56 1020.79 1020.99 1021.15 1021.26 1021.32 1021.34 1021.32 1021.28 1021.24 1021.23
1014.68 1015.06 1015.49 1015.92 1016.31 1016.63 1016.87 1017.06 1017.22 1017.40 1017.62 1017.92 1018.28 1018.69 1019.11 1019.49 1019.80 1019.99 1020.06 1020.02 1019.89 1019.70 1019.51 1019.34 1019.23 1019.20 1019.24 1019.35 1019.52 1019.74 1019.98 1020.24 1020.49 1020.72 1020.93 1021.09 1021.20 1021.25 1021.25 1021.22 1021.16 1021.10 1021.06
1014.56 1014.92 1015.31 1015.70 1016.05 1016.34 1016.57 1016.75 1016.91 1017.09 1017.32 1017.61 1017.96 1018.36 1018.76 1019.14 1019.44 1019.65 1019.74 1019.74 1019.67 1019.55 1019.42 1019.32 1019.27 1019.27 1019.34 1019.46 1019.63 1019.84 1020.06 1020.30 1020.53 1020.75 1020.95 1021.11 1021.23 1021.29 1021.30 1021.27 1021.21 1021.14 1021.09
1014.35 1014.69 1015.05 1015.41 1015.73 1016.01 1016.24 1016.44 1016.62 1016.82 1017.07 1017.37 1017.72 1018.09 1018.47 1018.81 1019.09 1019.29 1019.40 1019.44 1019.43 1019.39 1019.35 1019.34 1019.37 1019.45 1019.56 1019.71 1019.88 1020.07 1020.26 1020.46 1020.66 1020.86 1021.04 1021.20 1021.32 1021.40 1021.44 1021.44 1021.40 1021.35 1021.30
1014.06 1014.39 1014.73 1015.06 1015.38 1015.67 1015.92 1016.16 1016.40 1016.65 1016.94 1017.26 1017.61 1017.97 1018.32 1018.62 1018.87 1019.04 1019.16 1019.23 1019.28 1019.32 1019.39 1019.48 1019.60 1019.76 1019.93 1020.10 1020.27 1020.43 1020.58 1020.72 1020.87 1021.02 1021.17 1021.32 1021.45 1021.56 1021.64 1021.68 1021.69 1021.67 1021.64
1013.71 1014.04 1014.37 1014.71 1015.04 1015.36 1015.67 1015.98 1016.29 1016.63 1016.98 1017.36 1017.73 1018.08 1018.40 1018.67 1018.88 1019.04 1019.15 1019.24 1019.34 1019.46 1019.61 1019.80 1020.01 1020.24 1020.45 1020.64 1020.79 1020.91 1021.00 1021.07 1021.15 1021.24 1021.35 1021.48 1021.61 1021.75 1021.88 1021.97 1022.03 1022.05 1022.05
1013.37 1013.70 1014.04 1014.40 1014.76 1015.14 1015.52 1015.92 1016.34 1016.77 1017.22 1017.66 1018.07 1018.45 1018.76 1019.01 1019.20 1019.33 1019.44 1019.55 1019.68 1019.85 1020.07 1020.33 1020.61 1020.88 1021.12 1021.31 1021.43 1021.49 1021.51 1021.50 1021.49 1021.51 1021.57 1021.67 1021.81 1021.97 1022.12 1022.27 1022.38 1022.45 1022.48
1013.07 1013.42 1013.79 1014.18 1014.60 1015.04 1015.50 1016.00 1016.53 1017.08 1017.62 1018.15 1018.63 1019.04 1019.37 1019.62 1019.79 1019.91 1020.02 1020.13 1020.29 1020.50 1020.76 1021.06 1021.38 1021.67 1021.92 1022.08 1022.16 1022.16 1022.09 1022.00 1021.91 1021.86 1021.86 1021.92 1022.05 1022.21 1022.40 1022.57 1022.72 1022.83 1022.89
1012.89 1013.27 1013.68 1014.11 1014.57 1015.08 1015.64 1016.23 1016.86 1017.51 1018.16 1018.77 1019.32 1019.78 1020.14 1020.41 1020.59 1020.71 1020.82 1020.94 1021.11 1021.33 1021.61 1021.92 1022.25 1022.54 1022.77 1022.90 1022.93 1022.87 1022.74 1022.57 1022.41 1022.29 1022.24 1022.26 1022.36 1022.52 1022.70 1022.89 1023.05 1023.17 1023.23
1012.87 1013.28 1013.73 1014.20 1014.72 1015.29 1015.91 1016.58 1017.29 1018.03 1018.76 1019.45 1020.06 1020.57 1020.98 1021.27 1021.47 1021.61 1021.72 1021.85 1022.01 1022.24 1022.51 1022.82 1023.13 1023.40 1023.60 1023.70 1023.70 1023.59 1023.41 1023.19 1022.98 1022.81 1022.72 1022.70 1022.77 1022.89 1023.06 1023.23 1023.37 1023.47 1023.51
1013.04 1013.49 1013.97 1014.48 1015.04 1015.65 1016.31 1017.04 1017.80 1018.59 1019.37 1020.11 1020.77 1021.33 1021.77 1022.09 1022.32 1022.48 1022.60 1022.73 1022.89 1023.10 1023.36 1023.65 1023.93 1024.17 1024.34 1024.42 1024.39 1024.26 1024.06 1023.83 1023.60 1023.41 1023.28 1023.23 1023.26 1023.34 1023.46 1023.58 1023.68 1023.72 1023.71
1013.40 1013.89 1014.40 1014.94 1015.52 1016.15 1016.84 1017.57 1018.35 1019.16 1019.95 1020.71 1021.39 1021.97 1022.44 1022.79 1023.04 1023.21 1023.35 1023.48 1023.64 1023.83 1024.06 1024.32 1024.57 1024.79 1024.93 1025.00 1024.96 1024.85 1024.66 1024.44 1024.22 1024.03 1023.90 1023.83 1023.82 1023.85 1023.90 1023.95 1023.97 1023.93 1023.84
1013.94 1014.47 1015.01 1015.57 1016.16 1016.79 1017.47 1018.19 1018.95 1019.73 1020.51 1021.24 1021.91 1022.49 1022.96 1023.32 1023.59 1023.78 1023.92 1024.05 1024.20 1024.37 1024.58 1024.80 1025.02 1025.21 1025.35 1025.41 1025.40 1025.31 1025.16 1024.98 1024.80 1024.64 1024.52 1024.44 1024.39 1024.37 1024.36 1024.32 1024.24 1024.11 1023.91
1014.62 1015.18 1015.75 1016.33 1016.92 1017.54 1018.20 1018.88 1019.60 1020.33 1021.05 1021.73 1022.36 1022.91 1023.37 1023.72 1023.99 1024.18 1024.33 1024.46 1024.60 1024.75 1024.93 1025.12 1025.31 1025.47 1025.60 1025.67 1025.68 1025.64 1025.54 1025.42 1025.30 1025.18 1025.08 1025.00 1024.93 1024.87 1024.78 1024.65 1024.47 1024.24 1023.95
1015.39 1015.98 1016.58 1017.18 1017.78 1018.39 1019.01 1019.65 1020.30 1020.96 1021.61 1022.23 1022.80 1023.30 1023.71 1024.05 1024.30 1024.49 1024.64 1024.76 1024.88 1025.02 1025.16 1025.32 1025.48 1025.63 1025.74 1025.82 1025.86 1025.85 1025.81 1025.75 1025.68 1025.61 1025.54 1025.47 1025.39 1025.28 1025.13 1024.93 1024.67 1024.34 1023.96
Thickness
5759 5757 5756 5754 5754 5752 5751 5750 5749 5749 5748 5747 5747 5746 5744 5744 5743 5739 5735 5733 5731 5729 5728 5727 5726 5724 5723 5722 5721 5719 5718 5717 5716 5715 5715 5714 5713 5712 5711 5710 5708 5707 5706
5759 5757 5756 5755 5754 5753 5752 5751 5750 5749 5748 5747 5746 5746 5745 5744 5742 5739 5736 5733 5731 5729 5728 5727 5726 5724 5723 5721 5720 5719 5718 5717 5716 5715 5714 5713 5711 5711 5710 5708 5707 5706 5705
5758 5757 5756 5754 5754 5753 5753 5752 5750 5750 5748 5747 5746 5746 5745 5744 5743 5740 5737 5734 5732 5730 5728 5727 5726 5724 5723 5721 5720 5718 5717 5716 5715 5714 5713 5712 5710 5709 5708 5707 5706 5705 5704
5757 5756 5755 5755 5755 5754 5753 5752 5751 5749 5748 5747 5746 5746 5745 5744 5743 5741 5739 5737 5734 5732 5730 5728 5726 5725 5723 5721 5720 5718 5717 5716 5715 5714 5712 5711 5710 5709 5708 5706 5705 5704 5703
5756 5755 5755 5755 5754 5754 5754 5753 5750 5750 5747 5746 5746 5745 5745 5744 5743 5743 5741 5739 5736 5735 5732 5729 5727 5725 5724 5722 5720 5719 5717 5716 5715 5714 5713 5711 5710 5709 5707 5706 5705 5704 5702
5756 5755 5755 5755 5755 5754 5753 5752 5749 5749 5748 5746 5746 5746 5746 5746 5745 5744 5743 5742 5739 5737 5734 5732 5729 5726 5725 5723 5722 5720 5719 5717 5716 5714 5713 5712 5710 5709 5708 5706 5705 5704 5702
5755 5754 5755 5755 5755 5753 5752 5751 5749 5747 5746 5747 5742 5740 5743 5746 5745 5745 5744 5744 5742 5739 5736 5734 5731 5729 5727 5725 5723 5722 5720 5718 5717 5715 5713 5712 5711 5710 5708 5707 5706 5704 5703
5754 5754 5753 5754 5754 5752 5751 5750 5748 5745 5745 5746 5741 5734 5730 5734 5740 5747 5745 5744 5743 5741 5739 5737 5735 5733 5730 5728 5726 5724 5722 5720 5718 5716 5714 5713 5711 5710 5709 5707 5706 5705 5703
5754 5754 5753 5753 5753 5751 5749 5748 5747 5744 5741 5744 5745 5737 5729 5725 5731 5740 5744 5745 5744 5742 5741 5740 5738 5736 5733 5731 5728 5725 5723 5721 5719 5717 5715 5713 5712 5710 5709 5708 5707 5705 5704
5753 5753 5752 5751 5751 5751 5748 5748 5748 5746 5743 5739 5742 5744 5742 5738 5730 5729 5737 5743 5744 5742 5742 5741 5739 5737 5735 5732 5730 5727 5724 5722 5719 5717 5715 5714 5712 5710 5709 5708 5706 5705 5704
5751 5752 5751 5750 5749 5749 5749 5748 5747 5746 5744 5741 5740 5741 5742 5741 5740 5731 5727 5733 5738 5741 5742 5741 5739 5736 5734 5732 5729 5726 5723 5720 5718 5716 5714 5712 5711 5709 5708 5706 5705 5704 5703
5750 5751 5750 5749 5748 5748 5748 5747 5746 5744 5743 5742 5742 5741 5740 5738 5737 5736 5731 5730 5730 5736 5740 5740 5738 5735 5732 5729 5726 5724 5721 5718 5716 5714 5712 5710 5708 5707 5705 5704 5702 5701 5700
5748 5749 5751 5748 5747 5747 5747 5746 5744 5743 5742 5740 5740 5740 5742 5742 5743 5740 5734 5730 5729 5732 5734 5735 5735 5732 5729 5724 5721 5719 5716 5714 5711 5709 5708 5705 5704 5702 5701 5699 5697 5696 5695
5750 5750 5749 5747 5746 5746 5745 5743 5743 5742 5741 5740 5740 5739 5739 5741 5742 5740 5735 5730 5723 5723 5725 5726 5729 5727 5724 5720 5716 5713 5710 5707 5705 5703 5701 5699 5697 5695 5694 5692 5691 5689 5688
5750 5749 5748 5746 5745 5744 5743 5741 5740 5739 5738 5737 5737 5736 5735 5738 5739 5738 5736 5733 5723 5713 5712 5717 5718 5719 5716 5713 5710 5706 5703 5700 5698 5696 5694 5692 5690 5688 5686 5685 5683 5682 5680
5749 5747 5746 5744 5743 5741 5740 5738 5737 5736 5734 5734 5733 5732 5731 5732 5733 5732 5731 5729 5725 5717 5709 5710 5710 5709 5708 5706 5701 5698 5695 5693 5690 5687 5685 5683 5681 5679 5677 5676 5674 5672 5670
5747 5745 5743 5741 5739 5737 5736 5734 5733 5732 5730 5729 5729 5727 5725 5724 5723 5723 5723 5721 5717 5714 5705 5702 5702 5700 5698 5696 5692 5690 5688 5685 5681 5679 5676 5674 5672 5670 5667 5666 5664 5662 5659
5743 5742 5740 5737 5735 5733 5731 5730 5728 5727 5725 5722 5722 5721 5719 5718 5716 5714 5713 5711 5709 5707 5701 5694 5692 5690 5687 5686 5684 5682 5680 5677 5673 5670 5668 5665 5662 5660 5657 5655 5653 5650 5648
5739 5737 5735 5733 5731 5729 5727 5725 5723 5722 5719 5717 5715 5712 5711 5709 5706 5705 5703 5701 5700 5699 5695 5689 5684 5681 5678 5676 5673 5672 5670 5667 5664 5660 5657 5654 5652 5649 5647 5643 5640 5637 5635
5734 5732 5731 5729 5727 5724 5722 5720 5717 5714 5710 5708 5706 5703 5701 5699 5697 5695 5693 5690 5689 5687 5684 5680 5675 5671 5667 5665 5662 5659 5656 5654 5652 5650 5646 5643 5641 5638 5635 5631 5627 5624 5621
5730 5727 5725 5723 5721 5719 5717 5714 5709 5705 5701 5697 5694 5692 5689 5687 5686 5684 5682 5679 5677 5674 5672 5668 5663 5659 5654 5650 5647 5646 5644 5641 5639 5637 5634 5632 5629 5625 5621 5618 5613 5609 5606
5724 5721 5718 5715 5713 5711 5710 5707 5703 5698 5693 5688 5684 5680 5678 5676 5673 5671 5669 5667 5665 5662 5659 5656 5651 5645 5639 5636 5634 5633 5630 5627 5624 5624 5621 5618 5617 5612 5608 5603 5598 5594 5590
5717 5713 5710 5707 5703 5701 5700 5697 5694 5689 5684 5680 5676 5672 5670 5665 5662 5660 5657 5655 5652 5649 5647 5643 5637 5632 5627 5624 5622 5620 5616 5613 5610 5610 5607 5603 5601 5596 5592 5587 5583 5579 5575
5708 5705 5701 5698 5694 5690 5689 5687 5683 5679 5674 5670 5666 5662 5659 5654 5652 5651 5647 5642 5638 5635 5633 5629 5624 5619 5615 5612 5609 5607 5605 5602 5599 5596 5592 5586 5583 5579 5576 5571 5567 5563 5559
5700 5696 5692 5688 5685 5680 5678 5677 5674 5669 5663 5658 5654 5650 5647 5644 5642 5640 5637 5631 5626 5621 5618 5615 5611 5607 5603 5600 5596 5594 5590 5588 5583 5578 5573 5568 5565 5562 5559 5555 5550 5545 5541
5692 5687 5682 5679 5675 5671 5668 5666 5664 5659 5653 5646 5641 5638 5635 5633 5631 5630 5626 5622 5616 5611 5608 5604 5600 5596 5591 5587 5583 5578 5574 5570 5566 5561 5556 5551 5547 5543 5541 5538 5532 5528 5524